Theta_e
314 313 313 316 317 319 320 319 317 318 318 318 319 317 313 311 305 304 307 309 313 314 315 319 321 324 319 329 334 331 331 332 331 334 330 330 330 330 332 333 335 328 327 326 326 331 332 331 333 331 328 333 335 333
313 313 312 313 316 319 319 319 317 317 317 318 317 317 313 310 305 303 305 306 307 311 314 318 320 320 321 318 329 329 331 332 332 332 329 328 331 328 328 334 328 332 327 329 327 329 328 329 330 330 330 330 330 329
314 313 312 313 316 319 319 319 318 318 318 317 315 315 313 310 305 303 304 305 308 311 314 316 320 322 323 321 320 330 330 331 330 329 333 330 326 325 329 327 328 328 327 336 333 333 333 330 327 327 328 327 326 326
315 315 315 316 317 318 318 318 317 317 317 317 314 314 313 310 306 302 303 304 305 308 318 319 322 321 321 321 321 323 325 326 326 327 330 330 328 322 324 324 324 326 326 328 332 331 330 329 328 327 326 326 326 325
316 316 316 317 317 318 317 316 316 316 316 315 314 314 312 311 310 303 306 311 308 312 318 317 317 322 322 321 322 321 321 321 323 326 326 327 324 322 319 320 322 326 325 332 333 329 329 329 326 327 327 326 323 321
316 316 316 317 317 317 316 315 316 316 316 315 314 313 311 309 308 304 314 314 312 312 317 321 316 320 321 321 320 319 318 318 319 321 323 321 320 320 321 321 319 321 321 321 328 327 327 327 326 326 324 322 321 320
315 315 316 316 316 316 316 315 315 315 315 314 313 312 310 305 303 304 311 316 313 311 316 320 321 319 319 318 317 318 317 317 317 317 321 321 325 320 321 323 324 326 329 330 327 328 329 326 327 325 322 320 319 318
314 314 315 315 315 315 315 315 315 314 314 313 312 311 309 305 305 308 315 309 308 307 314 322 322 319 320 320 320 315 318 316 317 319 319 321 322 321 326 322 322 329 327 328 329 328 327 322 322 320 320 318 318 317
314 314 314 314 314 314 314 314 313 313 312 312 310 307 307 308 308 316 316 312 309 316 322 320 320 322 316 319 317 318 317 321 317 321 320 322 323 326 325 324 326 329 329 327 325 325 323 324 321 319 318 317 317 317
312 313 313 313 313 312 312 310 311 311 310 310 308 312 316 316 319 317 316 316 314 314 314 320 319 326 321 320 320 321 318 321 324 323 320 321 321 321 320 321 323 326 325 324 325 324 322 322 322 319 318 316 317 317
312 312 311 311 310 308 307 306 307 309 313 312 308 313 315 314 318 316 318 316 316 318 316 319 320 320 316 322 322 319 322 321 326 324 326 325 325 322 322 322 321 324 325 326 326 325 323 321 320 317 315 315 317 316
308 308 307 306 306 305 304 305 306 309 307 305 305 308 311 317 317 321 321 320 320 322 318 317 318 315 314 316 322 321 325 324 328 323 326 329 324 321 322 326 324 324 326 325 324 323 320 319 316 315 315 316 317 317
305 305 305 304 304 304 303 304 304 304 306 310 309 314 319 317 318 323 325 324 324 321 320 321 320 316 314 319 324 325 327 327 322 327 330 327 323 329 327 326 325 325 325 324 322 319 317 315 315 315 314 316 317 317
302 302 302 302 302 303 303 304 304 305 310 311 316 313 318 320 320 320 321 320 319 320 320 319 320 319 316 323 324 331 326 324 328 329 328 324 330 329 325 324 324 323 322 321 319 316 315 314 314 315 316 317 317 316
301 301 303 303 302 302 304 305 305 308 309 314 317 314 317 315 315 318 317 318 319 317 318 322 320 318 322 325 323 327 329 330 328 327 324 321 325 325 322 321 320 319 318 317 315 314 313 313 314 314 316 316 316 314
300 303 303 302 302 302 304 305 307 307 309 311 313 314 313 315 315 315 316 316 314 316 318 323 324 322 326 322 326 327 330 330 327 324 326 327 325 323 321 320 318 317 316 315 314 314 313 312 312 313 313 313 313 313
301 302 300 300 300 303 305 306 307 307 309 311 309 305 307 309 310 313 314 315 313 318 324 329 331 325 320 325 325 324 327 324 323 331 330 326 325 322 320 319 317 317 315 314 313 313 313 314 314 313 311 313 314 314
300 300 300 299 299 304 304 305 306 308 308 305 305 305 307 308 310 310 313 314 317 318 321 330 329 330 328 328 325 321 320 325 330 331 329 326 323 322 321 320 318 317 316 315 314 314 314 314 313 313 315 315 315 314
301 300 299 299 299 302 304 305 305 308 309 308 305 303 305 306 307 308 311 313 315 316 318 326 330 327 327 327 328 326 329 330 333 332 329 325 324 323 322 321 319 318 317 315 314 314 314 315 316 316 316 316 316 317
299 299 300 300 299 302 305 305 305 307 308 307 306 305 306 307 308 310 310 311 316 319 324 329 329 328 327 324 323 324 326 329 333 332 329 325 325 325 323 322 321 319 317 316 315 316 315 315 316 317 317 317 317 318
300 301 300 299 300 300 301 303 305 307 307 308 306 311 310 308 310 310 310 311 315 318 321 326 326 323 322 321 322 323 327 329 331 332 330 328 325 325 323 322 321 320 317 316 314 314 315 316 317 317 317 317 317 317
300 301 300 300 300 301 301 301 303 304 306 307 305 306 309 315 312 310 308 312 313 315 314 320 322 319 319 323 324 325 327 329 331 330 329 328 326 325 323 323 322 318 318 317 317 315 316 317 317 317 317 317 316 319
301 300 301 300 302 301 302 303 305 307 310 311 312 313 313 313 311 310 313 310 310 310 311 313 316 318 320 322 326 327 329 328 330 331 330 329 329 327 325 324 323 322 320 321 320 319 318 318 318 317 318 317 315 314
299 301 300 302 302 302 303 305 306 307 309 310 310 314 313 313 311 313 315 312 312 310 309 311 313 316 317 322 326 328 329 327 327 330 331 330 327 326 326 326 326 325 325 324 323 323 322 321 320 319 318 318 317 315
300 300 300 301 303 304 305 307 309 309 310 307 311 310 311 314 316 317 316 312 311 313 313 311 314 315 317 319 326 328 327 326 326 327 329 329 326 325 325 326 326 326 326 325 324 323 322 321 319 318 318 317 316 315
301 300 301 304 306 305 307 309 310 309 311 312 311 310 313 315 316 315 313 314 312 310 311 312 313 314 315 319 324 324 324 323 323 323 328 329 328 328 326 326 325 326 326 326 325 322 321 321 321 320 318 317 318 316
301 302 302 299 303 307 309 308 310 310 312 314 314 315 316 317 318 315 314 317 317 315 315 315 314 314 315 316 319 321 322 321 322 325 327 328 327 329 327 326 325 326 326 326 325 324 322 321 321 321 320 318 317 317
301 303 307 307 307 304 308 310 309 312 312 313 313 315 315 316 320 317 317 317 317 318 317 318 318 317 317 317 319 320 319 321 322 324 326 327 328 329 328 327 326 325 326 325 325 324 323 322 321 320 320 319 320 319
303 305 304 305 310 310 311 310 311 312 313 314 315 315 316 313 314 314 315 314 316 318 317 317 317 318 319 319 319 319 319 320 318 321 323 320 318 324 326 326 325 324 324 323 323 324 323 323 322 320 320 319 318 318
303 305 309 310 311 312 311 310 311 310 310 312 313 313 313 312 314 314 314 315 316 318 317 317 317 316 315 316 316 317 319 320 319 318 318 318 317 322 324 324 324 325 324 324 324 324 323 322 322 321 319 318 317 317
307 306 308 310 311 308 308 308 309 310 310 311 313 314 315 315 313 313 313 314 316 316 317 317 317 317 316 316 315 316 318 320 320 320 320 321 322 321 321 321 323 324 324 325 321 320 322 321 320 320 319 318 317 317
307 308 310 311 312 309 308 310 310 311 311 312 312 311 312 313 314 313 314 315 315 315 315 316 315 316 316 316 317 317 316 320 321 320 321 321 322 322 322 322 323 323 322 321 321 321 321 321 318 319 319 318 317 317
308 308 308 309 310 312 311 312 313 314 314 314 315 315 315 315 317 315 317 316 315 315 315 315 316 318 319 320 320 320 319 319 321 322 322 322 322 322 322 322 322 322 321 320 321 319 317 317 318 318 318 318 317 316
Wind_Speed
17 17 18 16 15 13 13 12 12 12 12 12 13 14 16 18 19 18 3 7 4 2 6 6 4 3 2 1 1 2 4 5 4 3 2 2 2 4 3 5 8 6 5 3 3 3 3 2 1 4 5 3 7 6
16 16 16 14 13 12 13 12 11 11 11 12 13 14 15 17 17 15 3 6 12 3 6 6 17 26 13 13 2 2 4 4 4 3 1 1 0 0 4 1 1 3 5 5 6 5 3 4 3 2 5 7 5 14
15 14 13 13 13 12 12 11 11 11 12 13 13 14 15 16 15 14 10 11 3 2 5 3 9 17 16 27 25 3 3 5 2 3 4 2 3 3 4 4 2 2 4 4 3 2 3 2 5 6 5 13 13 15
13 11 12 12 12 12 12 11 11 11 11 12 13 13 14 15 15 15 11 8 5 1 2 6 8 13 9 12 29 26 4 2 6 2 3 3 3 3 3 3 3 4 4 5 2 4 6 6 3 11 11 13 15 11
14 12 12 12 12 12 12 11 10 11 11 12 13 14 15 16 17 19 14 4 12 1 2 5 19 9 14 8 17 16 8 3 2 3 2 4 1 3 2 2 2 4 7 5 6 12 6 7 7 11 16 14 12 16
13 12 11 11 11 10 9 10 10 10 12 12 13 14 15 15 17 8 2 3 7 5 0 4 6 6 9 4 10 6 5 3 3 4 3 3 3 3 3 4 5 5 4 6 4 10 2 12 8 6 14 13 10 11
9 9 10 11 10 10 10 11 11 12 12 13 14 14 14 14 14 3 4 3 11 9 1 4 5 5 4 3 1 2 4 2 3 2 2 2 2 4 3 5 6 4 4 4 10 13 8 8 8 9 12 13 17 16
9 9 9 9 8 8 8 9 11 12 12 13 15 15 16 15 14 8 2 8 21 5 1 2 4 5 4 0 1 2 2 3 3 2 1 2 2 2 2 5 4 2 6 5 8 3 10 12 12 9 17 16 13 11
8 9 8 7 6 6 7 9 10 11 12 13 14 15 5 3 2 3 4 3 9 2 1 1 2 3 4 1 1 2 2 1 1 2 2 3 1 4 7 8 7 8 8 9 7 12 16 16 14 13 13 10 12 9
6 6 6 7 7 7 7 7 8 10 11 10 4 1 2 2 3 2 1 2 3 2 1 3 1 4 2 2 2 3 2 2 2 4 2 2 4 4 7 8 8 9 14 16 15 7 9 10 14 13 13 11 12 12
4 6 7 7 6 4 4 6 7 7 2 2 2 2 5 4 2 2 1 2 1 2 3 4 5 3 2 1 3 2 3 1 2 5 4 1 4 6 5 8 6 8 17 18 20 19 20 20 16 10 8 9 15 18
6 6 5 4 3 2 3 5 6 1 2 4 5 6 5 2 3 1 3 2 4 5 3 4 5 5 4 3 2 2 4 2 5 2 3 2 5 5 6 7 8 10 12 8 11 15 9 11 14 12 12 12 16 20
6 5 3 2 1 2 4 5 4 3 3 1 1 2 1 1 1 5 4 3 2 2 2 1 3 3 1 1 1 2 3 5 2 2 4 5 4 3 5 6 6 7 7 9 11 13 19 17 20 20 15 20 23 23
4 4 3 3 3 4 5 5 2 0 0 1 2 2 4 4 4 4 2 3 4 2 5 3 3 4 3 3 2 4 3 3 1 2 5 3 5 4 3 3 10 9 11 13 13 17 17 17 16 20 23 25 23 19
3 3 4 5 6 6 6 4 1 1 1 2 1 4 5 2 3 3 3 3 3 3 3 4 2 3 1 3 1 2 3 4 4 5 4 4 5 7 8 7 11 12 13 13 15 13 17 19 18 18 23 23 20 17
2 2 4 6 8 8 6 2 1 1 1 1 3 2 3 0 3 3 3 3 3 4 3 2 2 2 4 3 3 5 5 5 3 4 3 3 7 7 9 8 9 10 12 13 17 18 20 20 20 23 21 18 15 13
2 2 5 8 8 7 3 2 2 1 2 2 3 2 2 3 4 3 2 3 4 4 3 3 2 1 1 2 3 4 5 4 4 4 2 5 10 9 8 9 11 14 14 16 18 21 22 25 23 21 11 15 14 11
3 3 6 9 9 5 2 3 2 1 3 3 2 3 2 2 3 4 3 3 4 3 2 2 3 3 3 3 2 4 3 2 2 2 2 4 7 8 12 12 14 18 17 19 21 21 23 23 18 15 17 15 13 12
2 4 5 9 8 3 2 1 1 2 3 2 3 4 3 3 4 4 3 4 4 4 3 2 3 3 2 3 2 3 3 3 3 2 3 5 10 11 13 15 17 17 19 21 21 18 22 26 22 19 16 14 13 13
5 5 5 4 5 3 1 1 1 2 3 2 2 3 3 3 2 2 2 2 2 0 3 2 3 1 2 2 2 4 6 4 4 4 3 3 8 16 16 18 14 18 19 18 20 24 19 15 15 18 15 16 14 15
3 1 0 1 1 2 1 2 2 2 3 3 3 2 4 2 2 3 3 2 2 3 3 3 3 3 6 6 7 3 5 4 4 4 5 4 4 11 12 15 22 21 13 13 11 13 18 17 18 18 16 15 14 17
1 2 1 0 0 1 2 4 2 4 3 3 3 2 3 3 2 3 2 2 3 4 4 3 3 2 4 5 4 10 12 12 6 11 14 18 6 5 5 14 15 6 12 14 17 16 21 19 17 16 15 12 8 9
2 2 1 2 2 2 3 4 3 3 3 2 2 2 3 2 3 1 2 3 4 4 5 5 5 4 3 14 14 13 11 7 4 4 9 9 12 16 16 17 23 16 8 16 23 20 21 19 16 15 15 15 13 14
2 2 2 2 4 2 2 3 3 3 3 2 3 3 2 3 1 2 3 3 4 3 3 6 5 3 3 4 3 1 8 15 10 4 14 15 7 8 19 21 24 25 25 24 23 20 19 17 16 18 17 15 17 19
1 3 3 5 3 4 4 3 4 3 3 4 3 4 3 2 2 3 3 4 4 7 8 5 5 7 6 2 1 1 2 6 4 6 10 13 12 11 8 10 17 23 21 19 15 13 15 17 13 14 17 18 17 18
4 5 5 4 4 4 5 3 6 5 3 3 4 3 2 2 3 5 3 2 3 4 6 6 6 5 4 4 4 6 12 9 9 8 10 21 20 13 10 8 6 12 20 22 19 15 14 14 11 8 9 13 15 18
4 4 5 4 3 2 2 4 1 1 3 5 3 3 3 3 4 3 3 2 3 3 8 17 15 7 5 6 18 16 17 14 21 22 20 23 24 26 25 17 10 19 21 26 23 21 20 13 11 13 9 12 16 19
4 3 4 2 4 4 3 2 2 4 4 3 3 4 3 3 2 3 2 8 17 17 15 6 10 18 17 17 18 13 13 15 10 9 10 11 15 21 21 19 14 9 15 22 23 23 18 15 15 13 14 11 6 8
5 4 5 5 5 3 4 4 3 3 2 1 1 2 3 2 2 2 8 19 14 12 11 11 14 7 13 11 10 8 10 12 7 8 7 4 3 12 18 19 18 12 15 17 19 18 15 14 13 14 11 9 7 10
5 5 4 3 3 4 4 6 4 5 3 3 3 3 3 3 7 9 10 7 6 1 7 11 10 9 1 4 2 3 3 4 5 8 5 4 7 11 17 19 17 18 17 17 18 15 13 13 13 15 15 11 6 6
2 4 3 4 3 4 4 3 3 3 3 2 1 2 3 3 7 16 18 8 8 3 5 9 13 14 2 5 2 2 2 3 9 9 6 11 13 12 13 16 18 18 17 19 17 17 18 15 16 14 14 13 11 10
3 5 4 4 4 4 2 3 3 4 4 5 4 4 1 2 3 3 4 8 13 9 13 19 8 4 10 16 16 18 15 8 10 12 11 12 12 11 12 16 20 20 19 17 20 21 19 17 14 16 14 10 9 9
2 2 3 2 3 3 2 1 2 2 1 2 2 2 3 4 4 3 5 3 12 18 18 11 14 18 11 11 9 11 18 12 12 15 14 14 11 14 19 21 18 18 15 14 16 15 13 12 12 14 14 13 13 13
Wind_Direction
282 282 282 260 251 266 273 288 289 294 300 316 326 336 343 348 353 358 292 46 16 241 269 229 250 257 357 87 201 266 39 351 33 65 108 252 155 215 115 181 164 169 155 193 80 101 268 188 116 174 195 49 130 98
280 282 275 266 254 261 267 274 278 290 305 314 321 328 335 344 349 360 324 319 315 195 254 276 263 257 254 235 164 314 198 163 162 79 95 209 199 18 139 230 4 174 190 179 164 218 254 301 254 50 140 132 121 117
279 281 270 251 249 256 264 271 275 281 296 306 317 323 327 333 343 346 323 326 326 318 301 353 245 272 275 239 221 160 280 170 164 178 153 238 250 145 142 242 143 251 164 95 96 343 32 35 63 77 114 120 121 121
271 268 254 251 244 251 263 269 268 273 284 297 306 312 319 323 328 328 307 277 289 233 291 282 322 291 280 252 206 207 260 146 97 125 120 148 228 126 206 178 156 200 113 123 65 355 55 357 93 128 111 113 113 109
268 260 251 242 242 247 260 269 266 271 283 295 303 308 313 318 320 321 301 280 208 130 248 284 312 287 303 252 208 205 209 98 59 65 139 229 105 93 280 76 280 191 169 157 208 197 157 184 174 147 131 131 124 120
260 252 239 238 237 247 259 269 269 271 282 292 299 303 312 320 322 330 15 139 173 210 147 308 302 296 334 173 182 154 154 111 109 144 222 271 267 131 150 200 264 243 212 175 219 160 156 135 123 127 129 133 134 128
246 237 234 233 241 250 254 256 260 268 282 291 297 303 309 311 309 239 234 150 188 3 85 311 313 278 301 97 46 88 47 88 124 162 197 203 239 112 136 186 238 258 265 165 133 109 71 149 153 142 134 128 121 119
236 235 234 241 245 249 249 248 259 273 285 294 300 302 300 297 288 287 345 239 228 271 33 278 274 334 346 82 171 20 99 36 10 189 61 183 356 50 266 249 261 78 91 83 157 48 133 115 117 122 128 130 125 129
232 230 234 231 238 234 237 251 267 281 292 299 301 304 297 209 221 334 352 102 156 205 230 193 236 254 353 18 176 53 83 130 301 184 246 103 313 225 224 199 179 175 172 139 89 114 129 136 137 139 137 132 129 141
216 226 222 218 213 224 246 263 280 296 306 302 304 329 314 188 297 235 283 35 14 328 53 235 263 268 38 2 357 79 30 167 169 248 99 142 241 255 244 212 189 152 135 129 117 107 116 136 154 152 161 161 155 153
184 183 181 187 200 215 258 295 309 314 303 331 17 241 309 316 160 46 244 177 185 251 209 233 200 225 297 128 225 195 182 157 140 261 143 264 278 238 222 199 194 166 163 167 166 166 169 158 159 156 143 138 142 147
118 134 146 162 187 235 299 324 328 350 38 312 284 298 309 16 55 203 230 265 200 227 212 185 227 193 252 136 124 221 166 88 214 148 104 253 251 243 202 204 182 176 179 154 155 153 135 135 140 135 137 136 148 159
103 112 110 108 353 334 330 329 334 332 317 283 277 303 95 256 73 205 217 244 256 244 220 203 271 216 306 85 176 132 136 208 82 111 213 223 265 275 194 147 119 127 110 104 101 102 111 112 124 133 129 148 155 158
94 89 72 49 5 353 339 338 338 310 247 217 177 277 173 227 236 203 214 240 263 287 302 225 230 187 201 150 168 167 217 109 120 164 225 237 226 206 163 133 123 127 125 121 120 120 120 121 122 133 141 150 152 158
66 71 86 40 7 350 345 345 356 32 335 229 195 221 225 266 267 283 312 341 307 275 334 312 280 151 204 148 193 109 145 223 192 214 225 236 202 166 142 132 127 122 125 123 128 125 123 125 128 132 147 152 155 159
63 63 31 3 354 350 342 350 51 4 274 250 247 277 271 77 332 334 334 291 282 307 291 205 235 142 209 168 141 205 162 194 232 223 227 174 159 148 133 130 130 127 126 123 127 131 132 135 144 152 155 159 160 163
112 71 10 359 349 350 358 357 357 210 266 248 260 279 225 225 230 271 301 287 295 1 330 300 3 210 326 148 195 171 186 211 221 251 197 172 159 148 129 126 130 127 125 129 130 143 153 155 154 154 153 169 171 176
81 57 12 4 1 9 20 12 352 326 264 260 262 276 280 254 285 291 291 306 338 342 325 319 319 323 276 193 238 238 236 248 241 156 164 133 127 134 141 138 140 142 141 147 152 153 156 156 159 174 178 183 192 203
337 342 12 12 1 354 345 346 32 284 267 266 260 271 230 247 241 244 234 280 262 256 280 251 247 212 239 276 291 314 303 242 174 136 115 116 129 134 134 142 142 142 147 153 153 162 173 175 175 172 175 180 196 211
315 308 313 338 336 2 306 253 224 262 262 272 259 264 236 236 252 233 252 261 266 300 267 248 250 348 239 256 239 293 286 254 131 104 89 93 136 144 152 154 156 154 147 159 167 171 173 175 185 183 187 201 208 225
299 286 346 277 46 20 313 314 251 238 283 267 262 267 258 258 242 222 233 197 184 222 215 209 244 245 247 254 256 268 336 289 196 160 153 139 149 143 131 140 148 152 151 162 166 180 182 190 187 189 204 217 246 251
273 184 38 223 337 217 266 229 262 304 271 260 295 218 281 271 241 235 214 183 227 221 211 203 194 244 309 324 353 328 325 305 130 99 101 126 135 135 143 152 142 146 164 176 176 178 197 206 200 201 215 236 236 217
164 169 224 205 235 218 264 188 244 210 252 251 277 251 244 256 239 131 248 222 248 233 212 210 244 244 284 310 347 328 6 354 315 136 140 138 138 140 144 161 165 169 172 190 196 197 205 211 211 209 216 221 214 205
171 228 221 232 202 262 211 233 219 255 228 244 242 250 238 234 321 272 253 239 229 232 210 222 189 213 240 255 227 264 8 15 349 265 148 140 136 163 172 178 186 194 196 198 200 198 209 216 225 218 217 222 222 217
230 206 206 234 212 216 234 239 192 214 247 219 233 252 245 188 241 237 232 255 221 223 227 222 208 209 215 203 301 99 93 317 331 293 174 148 116 114 135 186 207 211 207 201 197 197 205 212 199 215 222 228 210 203
227 208 214 216 191 214 210 239 198 213 207 228 244 242 164 217 235 250 244 252 255 225 202 203 203 186 182 171 166 173 186 190 267 263 200 166 163 178 185 179 195 230 214 214 211 192 172 171 183 189 206 207 218 206
245 238 210 227 250 248 242 238 201 259 263 213 231 206 200 242 238 242 267 279 295 288 294 223 195 188 193 179 206 186 169 159 219 225 210 197 198 202 189 180 201 221 213 210 208 204 198 189 201 197 199 221 216 206
248 268 236 228 212 213 242 253 242 229 221 222 258 210 228 241 303 309 306 338 347 337 352 49 199 198 197 210 210 189 172 175 165 157 151 174 202 207 208 212 213 227 226 219 215 216 210 218 209 204 201 214 235 236
234 209 198 254 247 192 221 210 244 235 192 321 290 272 287 272 244 286 309 324 323 322 2 15 15 109 119 132 143 133 122 134 120 129 138 151 153 209 210 216 216 207 222 216 217 217 207 207 206 203 202 220 205 225
239 184 207 235 246 218 221 190 210 248 222 206 189 262 271 271 272 295 295 300 292 28 334 334 337 351 87 95 68 63 111 146 146 147 144 159 187 186 208 203 198 200 193 181 173 170 177 184 193 194 200 209 215 198
213 162 214 197 244 251 227 228 242 189 232 229 264 246 244 263 281 275 272 216 175 97 334 346 323 307 254 16 22 100 300 254 189 173 153 172 171 175 186 197 196 185 174 171 172 169 177 183 192 198 208 216 216 213
186 207 188 201 246 261 238 218 222 210 190 190 225 208 224 241 260 271 271 207 182 206 214 225 241 328 276 265 259 246 247 206 188 191 170 174 186 194 195 183 180 177 170 176 175 175 191 204 217 212 211 225 226 219
231 210 213 291 332 304 272 240 266 277 233 235 244 217 201 196 240 262 11 178 193 194 223 231 229 250 240 199 178 168 184 204 177 161 164 174 169 163 161 157 163 169 165 168 167 168 177 192 208 215 216 217 217 222